Kodiak, AK

5:07 AM AKDT on March 28, 2017 (GMT -0800)
Kodiak

Weather History for PADQ - February, 2013

Change the Weather History Date:

Tuesday, February 5, 2013

  Actual Average Record
Temperature  
Mean Temperature 35 °F 30 °F  
Max Temperature 42 °F 35 °F 49 °F (1957)
Min Temperature 28 °F 26 °F 0 °F (1999)
Degree Days  
Heating Degree Days 30 35  
Month to date heating degree days 139 175  
Since 1 July heating degree days 5157 5089  
Cooling Degree Days 0 0  
Month to date cooling degree days 0 0  
Year to date cooling degree days 0 0  
Moisture  
Dew Point 33 °F    
Average Humidity 0    
Maximum Humidity 0    
Minimum Humidity 0    
Precipitation  
Precipitation T in 0.24 in 1.32 in (1962)
Month to date precipitation 2.23 1.18  
Year to date precipitation 11.76 9.47  
Snow  
Snow 0.00 in 0.50 in 8.80 in (1969)
Month to date snowfall 0.0 2.6  
Since 1 July snowfall 29.4 36.9  
Snow Depth 0.00 in    
Sea Level Pressure  
Sea Level Pressure 29.54 in    
Wind  
Wind Speed 5 mph (NW)    
Max Wind Speed 9 mph    
Max Gust Speed 18 mph    
Visibility 10 miles    
Events      
T = Trace of Precipitation, MM = Missing Value Source: NWS Daily Summary

Daily Weather History Graph

Daily Weather History Graph

Search for Another Location

Airport or City:

Trip Planner

Search our weather history database for the weather conditions in past years. The results will help you decide how hot, cold, wet, or windy it might be!

Date:

Astronomy

Feb. 05, 2013 Rise Set
Actual Time 9:02 AM AKST 5:46 PM AKST
Civil Twilight 8:20 AM AKST 6:28 PM AKST
Nautical Twilight 7:33 AM AKST 7:15 PM AKST
Astronomical Twilight 6:48 AM AKST 8:00 PM AKST
Moon 5:23 AM AKST (2/5) 12:45 PM AKST (2/5)
Length of Visible Light 10h 08m
Length of Day
8h 43m
Waning Crescent, 25% of the Moon is Illuminated
Feb 5
Waning Crescent
Feb 9
New
Feb 17
First Quarter
Feb 25
Full
Mar 4
Last Quarter

Hourly Weather History & Observations

Time (AKST) Temp. Windchill Dew Point Humidity Pressure Visibility Wind Dir Wind Speed Gust Speed Precip Events Conditions
12:53 AM 37.0 °F 31.6 °F 36.0 °F 96% 29.56 in 10.0 mi East 6.9 mph - N/A   Overcast
1:21 AM 33.8 °F - 33.8 °F 100% 29.56 in 10.0 mi Calm Calm - N/A   Overcast
1:53 AM 37.0 °F 32.4 °F 36.0 °F 96% 29.56 in 10.0 mi East 5.8 mph - N/A   Overcast
2:02 AM 37.4 °F 32.8 °F 35.6 °F 93% 29.55 in 10.0 mi East 5.8 mph - N/A   Overcast
2:21 AM 37.4 °F 32.8 °F 37.4 °F 100% 29.55 in 10.0 mi ENE 5.8 mph - N/A   Overcast
3:03 AM 37.4 °F 31.4 °F 35.6 °F 93% 29.54 in 10.0 mi NE 8.1 mph - N/A   Overcast
3:46 AM 37.4 °F 31.4 °F 35.6 °F 93% 29.54 in 10.0 mi NE 8.1 mph - N/A   Overcast
3:50 AM 37.4 °F 32.1 °F 35.6 °F 93% 29.54 in 10.0 mi NE 6.9 mph - N/A   Overcast
3:53 AM 37.0 °F 31.0 °F 36.0 °F 96% 29.54 in 10.0 mi NE 8.1 mph - N/A   Overcast
4:00 AM 37.4 °F 31.4 °F 35.6 °F 93% 29.53 in 10.0 mi NE 8.1 mph - N/A   Overcast
4:31 AM 37.4 °F 32.8 °F 35.6 °F 93% 29.53 in 10.0 mi NE 5.8 mph - N/A   Overcast
4:53 AM 36.0 °F - 35.1 °F 97% 29.53 in 10.0 mi Calm Calm - N/A   Overcast
5:53 AM 35.1 °F 32.2 °F 34.0 °F 96% 29.53 in 10.0 mi West 3.5 mph - N/A   Overcast
6:15 AM 35.6 °F - 33.8 °F 93% 29.53 in 10.0 mi Calm Calm - N/A   Overcast
6:53 AM 35.1 °F 32.2 °F 34.0 °F 96% 29.53 in 10.0 mi WNW 3.5 mph - N/A   Overcast
7:53 AM 35.1 °F 31.0 °F 34.0 °F 96% 29.53 in 10.0 mi West 4.6 mph - N/A   Overcast
8:53 AM 34.0 °F 31.0 °F 34.0 °F 100% 29.53 in 9.0 mi WNW 3.5 mph - 0.00 in   Mostly Cloudy
9:53 AM 34.0 °F 31.0 °F 33.1 °F 96% 29.53 in 9.0 mi WNW 3.5 mph - N/A   Mostly Cloudy
10:53 AM 37.0 °F 33.3 °F 35.1 °F 93% 29.53 in 10.0 mi SSW 4.6 mph - N/A   Mostly Cloudy
11:53 AM 39.0 °F 36.8 °F 36.0 °F 89% 29.52 in 10.0 mi South 3.5 mph - N/A   Scattered Clouds
12:53 PM 41.0 °F - 34.0 °F 76% 29.53 in 10.0 mi Calm Calm - N/A   Scattered Clouds
1:53 PM 39.9 °F 37.8 °F 35.1 °F 83% 29.52 in 10.0 mi WSW 3.5 mph - N/A   Scattered Clouds
2:53 PM 42.1 °F 39.2 °F 32.0 °F 67% 29.52 in 10.0 mi West 4.6 mph - N/A   Scattered Clouds
3:53 PM 39.9 °F 36.7 °F 30.9 °F 70% 29.52 in 10.0 mi WNW 4.6 mph - N/A   Scattered Clouds
4:53 PM 39.9 °F 37.8 °F 30.9 °F 70% 29.52 in 10.0 mi WNW 3.5 mph - N/A   Mostly Cloudy
5:53 PM 37.9 °F 32.1 °F 28.9 °F 70% 29.52 in 10.0 mi WNW 8.1 mph - N/A   Scattered Clouds
6:53 PM 37.9 °F 32.7 °F 27.0 °F 65% 29.53 in 10.0 mi WNW 6.9 mph - N/A   Scattered Clouds
7:53 PM 32.0 °F 26.4 °F 27.0 °F 82% 29.53 in 10.0 mi West 5.8 mph - N/A   Partly Cloudy
8:53 PM 33.1 °F 26.9 °F 27.0 °F 78% 29.54 in 10.0 mi West 6.9 mph - N/A   Scattered Clouds
9:53 PM 33.1 °F 26.1 °F 26.1 °F 75% 29.54 in 10.0 mi WNW 8.1 mph - N/A   Scattered Clouds
10:53 PM 32.0 °F 28.7 °F 26.1 °F 79% 29.55 in 10.0 mi Variable 3.5 mph - N/A   Mostly Cloudy
11:53 PM 28.9 °F 25.2 °F 26.1 °F 89% 29.54 in 10.0 mi West 3.5 mph - N/A   Scattered Clouds